EW6472 Weather Reports


time (UTC)temp
C
wind
direction
speed
KPH
gust
KPH
rain 1hr
cm
rain 24hr
cm
rain mn
cm
humidity
%
barometer
mb
20260503191504 17 226 4.8 11.3 0.00 0.00 0.00 72 1012.3
20260503184607 16 245 1.6 9.7 0.00 0.00 0.00 74 1012.6
20260503183056 16 226 1.6 6.4 0.00 0.00 0.00 75 1012.7
20260503181555 16 236 3.2 8.0 0.00 0.00 0.00 76 1012.7
20260503180100 15 214 1.6 8.0 0.00 0.00 0.00 78 1012.6
20260503174555 16 158 1.6 6.4 0.00 0.00 0.00 79 1012.6
20260503173051 16 225 3.2 8.0 0.00 0.00 0.00 79 1012.4
20260503171550 16 127 4.8 9.7 0.00 0.00 0.00 79 1012.2
20260503081557 14 198 1.6 6.4 0.00 0.00 0.00 88 1011.1
20260503080104 14 213 3.2 8.0 0.00 0.00 0.00 87 1011.2
20260503071605 15 200 4.8 9.7 0.00 0.00 0.00 88 1010.8
20260503054605 15 235 0.0 1.6 0.00 0.00 0.00 85 1010.4
20260503053046 15 231 0.0 3.2 0.00 0.00 0.00 84 1010.5
20260503051545 15 244 0.0 6.4 0.00 0.00 0.00 84 1010.6
20260503050044 15 219 1.6 4.8 0.00 0.00 0.00 83 1010.6
20260503044546 15 238 1.6 6.4 0.00 0.00 0.00 82 1010.5
20260503043052 15 182 1.6 9.7 0.00 0.00 0.00 82 1010.3
20260503041543 16 192 1.6 8.0 0.00 0.00 0.00 81 1010.1
20260503040046 16 230 3.2 12.9 0.00 0.00 0.00 81 1010.0
20260503034547 16 228 3.2 12.9 0.00 0.00 0.00 79 1009.6
20260503033042 16 219 3.2 9.7 0.00 0.00 0.00 78 1009.2
20260503031542 17 221 4.8 11.3 0.00 0.00 0.00 76 1009.1
20260503030040 17 236 1.6 8.0 0.00 0.00 0.00 74 1008.8
20260503024539 17 250 1.6 11.3 0.00 0.00 0.00 73 1008.6
20260503023039 18 252 3.2 11.3 0.00 0.00 0.00 71 1008.4
20260503021537 19 160 4.8 12.9 0.00 0.00 0.00 69 1008.1
20260503020037 20 238 6.4 14.5 0.00 0.00 0.00 67 1008.0
20260503014536 20 239 6.4 14.5 0.00 0.00 0.00 66 1008.0
20260503013041 21 227 4.8 11.3 0.00 0.00 0.00 65 1007.9
20260503011536 21 238 3.2 11.3 0.00 0.00 0.00 64 1007.9
20260503010034 21 182 3.2 8.0 0.00 0.00 0.00 64 1007.9
20260503004536 21 230 4.8 11.3 0.00 0.00 0.00 63 1007.9
20260503003042 22 246 3.2 11.3 0.00 0.00 0.00 62 1008.1
20260503001536 22 235 6.4 16.1 0.00 0.00 0.00 62 1008.1
20260503000027 22 155 8.0 14.5 0.00 0.00 0.00 61 1008.0
20260502234537 22 238 6.4 16.1 0.00 0.00 0.00 61 1008.1
20260502233037 23 163 3.2 17.7 0.00 0.00 0.00 61 1008.0
20260502231524 23 162 4.8 16.1 0.00 0.00 0.00 61 1008.1
20260502230031 23 255 6.4 17.7 0.00 0.00 0.00 60 1008.3
20260502224520 23 300 4.8 16.1 0.00 0.00 0.00 61 1008.6
20260502223024 23 241 6.4 14.5 0.00 0.00 0.00 60 1009.0
20260502221515 23 230 3.2 16.1 0.00 0.00 0.00 61 1009.1
20260502220015 23 200 6.4 14.5 0.00 0.00 0.00 60 1009.4
20260502214508 23 243 3.2 17.7 0.00 0.00 0.00 61 1009.6
20260502213006 23 270 3.2 17.7 0.00 0.00 0.00 62 1009.9
20260502211503 22 215 6.4 11.3 0.00 0.00 0.00 62 1010.1
20260502210001 22 241 8.0 17.7 0.00 0.00 0.00 63 1010.1
20260502204559 22 245 8.0 14.5 0.00 0.00 0.00 64 1010.2
20260502203057 22 200 4.8 12.9 0.00 0.00 0.00 66 1010.4
20260502201554 22 278 4.8 12.9 0.00 0.00 0.00 66 1010.5
20260502200053 22 264 3.2 9.7 0.00 0.00 0.00 66 1010.5
20260502194556 21 241 3.2 12.9 0.00 0.00 0.00 69 1011.0
20260502193048 21 244 4.8 11.3 0.00 0.00 0.00 67 1011.3